STARLINK-31542

operational
NORAD ID: 59194 Int'l Des: 2024-045 Owner: SPXS Country: US Constellation: starlink
LEOCIRCULAR

STARLINK-31542について

説明を読み込み中...

リアルタイム位置

3D地球を読み込み中...

次回通過

高度履歴

Altitude vs Time

uPlot chart will show altitude changes over time

軌道要素

1 59194U 24045S 25251.44291115 .00008672 00000-0 32443-3 0 9997
2 59194 42.9987 41.3871 0001033 284.3868 75.6869 15.27565692 85292
Epoch: Sep 8, 2025 • Age: 14 hours

現在のステータス

高度 485.8 km
速度 7.63 km/s
衛星直下点 38.85°N, 93.22°E
打ち上げ日 Mar 11, 2024
運用期間 1.4 years
タイプ internet

技術仕様

分類 Payload
質量 730.00 kg
乾燥質量 700.00 kg
総質量 730.00 kg
長さ 0.30 m
直径 4.10 m
スパン 29.00 m
形状 Box + pan
製造者 SPXS
バスタイプ Starlink V2M
フェーズステータス In Orbit
所有者/国 SPXS/US

大規模コンステレーション

Loading constellations...